sat.trackr.live / text

‹ back to catalog

STARLINK-3131

NORAD 49427 · 2021-104V

PAYLOAD ACTIVE UNKNOWN

§ Identity

Operator
Country
US
Launch date
2021-11-13
Launch site
AFETR
Launch vehicle
Mass (kg)
RCS (m²)

Purposes: comms

External: N2YO · Heavens-Above · Gunter

§ Orbital elements

Epoch: 2026-09-19T23:33:53.956800Z

Period
94.01 min
Inclination
53.1600°
Eccentricity
0.0001200
Mean motion
15.31703667 rev/d
Perigee alt
469.9 km
Apogee alt
471.6 km
Semi-major
6,848.9 km
B*
8.4385e-5
RAAN
63.2331°
Arg perigee
78.8189°
Mean anomaly
281.2947°
Rev number
26,815

§ Raw data

STARLINK-31311 49427U 21104V   26262.98187450  .00002255  00000+0  84385-4 0  99992 49427  53.1600  63.2331 0001200  78.8189 281.2947 15.31703667268159

JSON: /api/v1/satellites/49427 · /tle

For live sub-satellite position, see the globe view (requires WebGL).

§ Visibility from observer

Set your observer location to see the next 7 days of passes ≥ 10°. The values pass through the URL so the page stays shareable.

No JS? Fill the form by hand. The geolocation button needs JavaScript.